Tracking 18624 objects as of 1-May-2017
HD Live streaming from Space Station
objects crossing your sky now

CZ-3A DEB

Track CZ-3A DEB now!


NORAD ID: 35557
Int'l Code: 2007-003R
Perigee: 401.8 km
Apogee: 29,432.6 km
Inclination: 23.0 °
Period: 515.2 minutes
Semi major axis: 21288 km
RCS: 0.1574 m2 (medium)
Launch date: February 2, 2007
Source: People's Republic of China (PRC)
Launch site: Xichang Space Center, China (XSC)

Note: This is SATELLITE DEBRIS
Your satellite tracking list
Your tracking list is empty





NASA's NSSDC Master Catalog

Two Line Element Set (TLE):
1 35557U 07003R   17119.94216766 +.00000920 +00000-0 +18950-2 0  9991
2 35557 023.0399 046.1240 6818507 114.6723 327.9734 02.79507763039631
Source of the keplerian elements: AFSPC